Location: Cruquius
(52.3348°N, 4.6319°E)
Time: 03:20:09
(UTC+00:00)

JB-3 - Pass Details

Date: 12 May 2021
Orbit: 524 x 590 km, 97.3° (Epoch: 14 June)

Event Time Altitude Azimuth Distance (km) Brightness Sun altitude
Rises 21:10:55 0° 13° (NNE) 2,722 8.5 -12.4°
Reaches altitude 10° 21:13:04 10° 15° (NNE) 1,814 7.5 -12.6°
Maximum altitude 21:17:00 84° 105° (ESE) 544 4.2 -13.0°
Enters shadow 21:20:28 12° 192° (SSW) 1,628 6.3 -13.3°
